This demonstration page uses our WeatherBlox Daily Observations layout. Learn more.

Left ArrowRight Arrow

41.86663, -103.66717

Hourly Observations for August 31, 2018

Temp ( °F °C ) Dew Point ( °F °C ) Humidity (%) Winds ( mph kmh ) Pressure ( in mb ) Visibility ( mi km ) Precip ( " mm )
12:53 am 00:53 Mostly Clear 87 30.6 35 1.7 16 16 SSW 20 31 29.70 1006 10 16 0.00 0.00
1:53 am 01:53 Mostly Clear 85 29.4 36 2.2 17 17 SSW 16 26 29.68 1005 10 16 0.00 0.00
2:53 am 02:53 Clear 76 24.4 41 5 29 29 SE 5 7 29.67 1005 10 16 0.00 0.00
3:53 am 03:53 Clear 65 18.3 50 10 59 59 N 6 9 29.70 1006 10 16 0.00 0.00
4:53 am 04:53 Clear 66 18.9 45 7.2 47 47 VRB 3 6 29.71 1006 10 16 0.00 0.00
5:53 am 05:53 Clear 61 16.1 49 9.4 65 65 Calm 29.74 1007 10 16 0.00 0.00
6:53 am 06:53 Sunny 62 16.7 53 11.7 73 73 N 8 13 29.75 1007 10 16 0.00 0.00
7:53 am 07:53 Sunny 75 23.9 48 8.9 39 39 NNW 6 9 29.74 1007 10 16 0.00 0.00
8:53 am 08:53 Sunny 74 23.3 50 10 43 43 NW 7 11 29.74 1007 10 16 0.00 0.00
9:53 am 09:53 Mostly Sunny 79 26.1 46 7.8 31 31 W 8 13 29.74 1007 10 16 0.00 0.00
10:53 am 10:53 Sunny 87 30.6 44 6.7 22 22 WNW 10 17 29.72 1006 10 16 0.00 0.00
11:53 am 11:53 Sunny 89 31.7 44 6.7 21 21 VRB 6 9 29.70 1006 10 16 0.00 0.00
12:53 pm 12:53 Sunny 92 33.3 43 6.1 18 18 WNW 13 20 29.69 1005 10 16 0.00 0.00
1:53 pm 13:53 Sunny 94 34.4 38 3.3 14 14 NW 8 13 29.67 1005 10 16 0.00 0.00
2:53 pm 14:53 Sunny 93 33.9 39 3.9 15 15 NW 7 11 29.67 1005 10 16 0.00 0.00
3:53 pm 15:53 Sunny 91 32.8 38 3.3 15 15 Calm 29.68 1005 10 16 0.00 0.00
4:53 pm 16:53 Mostly Cloudy 84 28.9 50 10 31 31 WSW 5 7 29.73 1007 10 16 0.00 0.00
5:53 pm 17:53 Mostly Cloudy with Light Rain 78 25.6 51 10.6 39 39 ENE 17 28 29.76 1008 8 13 0.00 0.03
6:53 pm 18:53 Sunny 77 25 51 10.6 40 40 ESE 12 19 29.77 1008 10 16 0.00 0.03
7:53 pm 19:53 Clear 75 23.9 48 8.9 39 39 SSE 9 15 29.74 1007 10 16 0.00 0.00
8:53 pm 20:53 Clear 64 17.8 53 11.7 68 68 E 7 11 29.79 1009 10 16 0.00 0.00
9:53 pm 21:53 Clear 66 18.9 51 10.6 59 59 NNE 8 13 29.79 1009 10 16 0.00 0.00
10:53 pm 22:53 Clear 69 20.6 50 10 51 51 ENE 14 22 29.77 1008 10 16 0.00 0.00
11:53 pm 23:53 Clear 66 18.9 51 10.6 59 59 E 8 13 29.79 1009 10 16 0.00 0.00

Powered by AerisWeather